EW5962 Weather Reports


time (UTC)temp
C
wind
direction
speed
KPH
gust
KPH
rain 1hr
cm
rain 24hr
cm
rain mn
cm
humidity
%
barometer
mb
20260905224515 23 180 0.0 0.0 0.00 0.46 0.46 94 1008.4
20260905224104 23 180 0.0 0.0 0.00 0.46 0.46 93 1008.5
20260905223505 23 180 0.0 0.0 0.00 0.46 0.46 94 1008.5
20260905223009 23 180 0.0 0.0 0.00 0.46 0.46 94 1008.7
20260905222602 23 180 0.0 0.0 0.00 0.46 0.46 94 1008.7
20260905222002 23 180 0.0 0.0 0.00 0.46 0.46 94 1008.8
20260905221511 23 180 0.0 0.0 0.00 0.46 0.46 94 1008.8
20260905221102 23 180 0.0 0.0 0.00 0.46 0.46 94 1008.8
20260905220502 23 180 0.0 0.0 0.00 0.46 0.46 94 1008.8
20260905220009 23 180 0.0 0.0 0.00 0.46 0.46 94 1008.8
20260905215604 23 180 0.0 0.0 0.00 0.46 0.46 94 1008.9
20260905215006 23 180 0.0 0.0 0.00 0.46 0.46 94 1009.0
20260905214510 23 180 0.0 0.0 0.00 0.46 0.46 94 1009.0
20260905214103 23 180 0.0 0.0 0.00 0.46 0.46 94 1009.0
20260905213503 23 180 0.0 0.0 0.00 0.46 0.46 95 1009.0
20260905213008 23 180 0.0 0.0 0.00 0.46 0.46 94 1009.0
20260905212603 23 180 0.0 0.0 0.00 0.46 0.46 94 1009.1
20260905212002 23 180 0.0 0.0 0.00 0.46 0.46 94 1009.2
20260905211508 23 180 0.0 0.0 0.00 0.46 0.46 94 1009.3
20260905211105 23 180 0.0 0.0 0.00 0.46 0.46 94 1009.3
20260905210504 23 180 0.0 0.0 0.00 0.46 0.46 95 1009.4
20260905210009 22 180 0.0 0.0 0.00 0.46 0.46 94 1009.6
20260905205603 22 180 0.0 0.0 0.00 0.46 0.46 95 1009.8
20260905205002 22 180 0.0 1.6 0.00 0.46 0.46 95 1009.4
20260905204511 22 207 0.0 3.2 0.00 0.46 0.46 95 1009.3
20260905204102 22 193 0.0 3.2 0.00 0.46 0.46 96 1009.1
20260905203502 22 194 0.0 6.4 0.00 0.46 0.46 96 1009.0
20260905203009 22 193 0.0 6.4 0.00 0.46 0.46 95 1008.9
20260905202603 22 171 0.0 0.0 0.00 0.46 0.46 95 1009.0
20260905202016 22 170 0.0 0.0 0.00 0.46 0.46 95 1008.9
20260905201519 22 170 0.0 0.0 0.00 0.46 0.46 95 1008.8
20260905201016 22 170 0.0 0.0 0.00 0.46 0.46 95 1008.9
20260905200518 22 170 0.0 0.0 0.00 0.46 0.46 95 1009.1
20260905200023 21 170 0.0 0.0 0.00 0.46 0.46 94 1009.2
20260905195516 21 171 0.0 0.0 0.00 0.46 0.46 94 1009.5
20260905195016 21 171 0.0 0.0 0.00 0.46 0.46 94 1009.5
20260905194516 21 171 0.0 0.0 0.10 0.46 0.46 94 1009.7
20260905194017 21 171 0.0 0.0 0.38 0.46 0.46 93 1009.8
20260905193521 21 171 0.0 0.0 0.46 0.46 0.46 93 1009.6
20260905193015 21 176 0.0 0.0 0.46 0.46 0.46 92 1009.2
20260905192515 22 176 0.0 0.0 0.46 0.46 0.46 92 1008.9
20260905192014 22 170 0.0 0.0 0.46 0.46 0.46 91 1008.5
20260905191515 22 170 0.0 0.0 0.46 0.46 0.46 90 1008.4
20260905191015 22 171 0.0 1.6 0.46 0.46 0.46 89 1008.9
20260905190514 22 171 0.0 1.6 0.46 0.46 0.46 88 1009.3
20260905190022 23 172 0.0 0.0 0.46 0.46 0.46 87 1009.1
20260905185515 23 172 0.0 0.0 0.46 0.46 0.46 84 1009.4
20260905185014 25 183 0.0 9.7 0.43 0.43 0.43 78 1009.7
20260905184521 26 339 0.0 24.1 0.33 0.33 0.33 73 1009.6
20260905184012 29 164 1.6 24.1 0.08 0.08 0.08 61 1009.4
20260905183513 31 44 0.0 24.1 0.00 0.00 0.00 56 1009.9
20260905183011 33 320 6.4 20.9 0.00 0.00 0.00 56 1009.1
20260905182511 33 354 0.0 0.0 0.00 0.00 0.00 57 1008.1
20260905182011 34 64 0.0 1.6 0.00 0.00 0.00 57 1008.2
20260905181509 35 18 0.0 4.8 0.00 0.00 0.00 52 1008.4
20260905181009 35 184 0.0 4.8 0.00 0.00 0.00 50 1008.6
20260905180508 36 169 0.0 12.9 0.00 0.00 0.00 49 1008.7
20260905180009 36 314 0.0 12.9 0.00 0.00 0.00 47 1009.0
20260905175508 36 348 0.0 8.0 0.00 0.00 0.00 49 1009.1
20260905175008 36 14 0.0 3.2 0.00 0.00 0.00 51 1008.8
20260905174504 36 121 0.0 1.6 0.00 0.00 0.00 50 1008.8
20260905174002 36 92 0.0 1.6 0.00 0.00 0.00 49 1008.9
20260905173502 36 70 0.0 1.6 0.00 0.00 0.00 51 1009.2
20260905173100 35 71 0.0 8.0 0.00 0.00 0.00 53 1009.3
20260905172558 35 48 0.0 12.9 0.00 0.00 0.00 53 1009.7
20260905172058 35 20 3.2 12.9 0.00 0.00 0.00 53 1009.8
20260905171558 35 18 0.0 1.6 0.00 0.00 0.00 51 1009.8
20260905171057 35 356 0.0 3.2 0.00 0.00 0.00 52 1010.0
20260905170556 35 160 0.0 3.2 0.00 0.00 0.00 51 1010.1
20260905170100 35 316 0.0 4.8 0.00 0.00 0.00 51 1010.0
20260905165555 35 29 0.0 6.4 0.00 0.00 0.00 53 1010.1
20260905165054 35 44 0.0 6.4 0.00 0.00 0.00 53 1010.2
20260905164553 35 176 0.0 1.6 0.00 0.00 0.00 53 1010.1
20260905164050 35 37 0.0 1.6 0.00 0.00 0.00 53 1010.2
20260905163553 35 11 0.0 0.0 0.00 0.00 0.00 55 1010.3
20260905163048 34 260 0.0 0.0 0.00 0.00 0.00 55 1010.3
20260905162549 34 183 0.0 9.7 0.00 0.00 0.00 56 1010.4
20260905162047 34 17 0.0 9.7 0.00 0.00 0.00 55 1010.5
20260905161544 33 11 0.0 4.8 0.00 0.00 0.00 58 1010.6
20260905161043 33 182 0.0 1.6 0.00 0.00 0.00 56 1010.6
20260905160541 33 302 0.0 8.0 0.00 0.00 0.00 59 1010.6
20260905160040 33 201 0.0 3.2 0.00 0.00 0.00 59 1010.6
20260905155539 33 67 0.0 8.0 0.00 0.00 0.00 60 1010.7
20260905155037 32 162 0.0 8.0 0.00 0.00 0.00 60 1010.7
20260905154535 32 182 0.0 0.0 0.00 0.00 0.00 60 1010.8
20260905154034 32 203 0.0 0.0 0.00 0.00 0.00 63 1010.8
20260905153533 32 349 0.0 1.6 0.00 0.00 0.00 64 1010.8
20260905153044 31 144 0.0 1.6 0.00 0.00 0.00 64 1010.9
20260905152530 31 179 0.0 0.0 0.00 0.00 0.00 63 1010.8
20260905152033 31 204 0.0 0.0 0.00 0.00 0.00 66 1010.8
20260905151527 30 204 0.0 0.0 0.00 0.00 0.00 69 1011.0
20260905151026 30 94 0.0 1.6 0.00 0.00 0.00 70 1011.1
20260905150524 30 186 0.0 1.6 0.00 0.00 0.00 70 1011.2
20260905150022 29 153 0.0 4.8 0.00 0.00 0.00 73 1011.2
20260905145522 28 150 0.0 4.8 0.00 0.00 0.00 74 1011.3
20260905145020 28 194 0.0 0.0 0.00 0.00 0.00 75 1011.3
20260905144524 28 146 0.0 1.6 0.00 0.00 0.00 76 1011.3
20260905144016 27 162 0.0 0.0 0.00 0.00 0.00 77 1011.2
20260905143517 27 164 0.0 0.0 0.00 0.00 0.00 81 1011.3
20260905143014 27 203 0.0 0.0 0.00 0.00 0.00 80 1011.3
20260905142512 27 172 0.0 0.0 0.00 0.00 0.00 81 1011.1
20260905142011 26 186 0.0 0.0 0.00 0.00 0.00 82 1011.1
20260905141510 26 186 0.0 0.0 0.00 0.00 0.00 83 1011.1
20260905141009 26 186 0.0 0.0 0.00 0.00 0.00 84 1011.0
20260905140508 26 173 0.0 0.0 0.00 0.00 0.00 84 1011.0
20260905140006 25 212 0.0 0.0 0.00 0.00 0.00 86 1011.0
20260905135505 25 212 0.0 0.0 0.00 0.00 0.00 87 1011.2
20260905135003 25 178 0.0 1.6 0.00 0.00 0.00 88 1011.1
20260905134502 24 169 0.0 1.6 0.00 0.00 0.00 88 1011.2
20260905134100 24 192 0.0 0.0 0.00 0.00 0.00 90 1011.2
20260905133558 23 207 0.0 0.0 0.00 0.00 0.00 91 1011.2
20260905133059 23 207 0.0 0.0 0.00 0.00 0.00 92 1011.2
20260905132557 23 176 0.0 0.0 0.00 0.00 0.00 93 1011.2
20260905132059 22 188 0.0 1.6 0.00 0.00 0.00 94 1011.3
20260905131613 22 192 0.0 1.6 0.00 0.00 0.00 96 1011.3
20260905131054 22 192 0.0 0.0 0.00 0.00 0.00 96 1011.3
20260905130554 22 191 0.0 0.0 0.00 0.00 0.00 96 1011.4
20260905130051 22 226 0.0 0.0 0.00 0.00 0.00 96 1011.5
20260905125550 21 226 0.0 0.0 0.00 0.00 0.00 96 1011.6
20260905125051 21 226 0.0 0.0 0.00 0.00 0.00 96 1011.6
20260905124548 21 226 0.0 0.0 0.00 0.00 0.00 96 1011.7
20260905124047 21 226 0.0 0.0 0.00 0.00 0.00 96 1011.6
20260905123548 21 226 0.0 0.0 0.00 0.00 0.00 96 1011.5
20260905123047 21 226 0.0 0.0 0.00 0.00 0.00 96 1011.6
20260905122547 20 226 0.0 0.0 0.00 0.00 0.00 96 1011.5
20260905122047 20 226 0.0 0.0 0.00 0.00 0.00 96 1011.6
20260905121547 20 226 0.0 0.0 0.00 0.00 0.00 96 1011.5
20260905121046 20 226 0.0 0.0 0.00 0.00 0.00 96 1011.5
20260905120546 20 226 0.0 0.0 0.00 0.00 0.00 96 1011.4
20260905120046 20 226 0.0 0.0 0.00 0.00 0.00 96 1011.5
20260905115545 20 226 0.0 0.0 0.00 0.00 0.00 96 1011.5
20260905115046 20 226 0.0 0.0 0.00 0.00 0.00 95 1011.4
20260905114550 20 226 0.0 0.0 0.00 0.00 0.00 95 1011.3
20260905114046 20 226 0.0 0.0 0.00 0.00 0.00 95 1011.2
20260905113544 20 226 0.0 0.0 0.00 0.00 0.00 95 1011.2
20260905113043 20 226 0.0 0.0 0.00 0.00 0.00 95 1011.1
20260905112543 20 226 0.0 0.0 0.00 0.00 0.00 95 1011.1
20260905112043 20 226 0.0 0.0 0.00 0.00 0.00 95 1010.9
20260905111544 20 226 0.0 0.0 0.00 0.00 0.00 95 1010.9
20260905111042 20 226 0.0 0.0 0.00 0.00 0.00 95 1010.8
20260905110542 20 226 0.0 0.0 0.00 0.00 0.00 95 1010.8
20260905110041 20 226 0.0 0.0 0.00 0.00 0.00 95 1010.8
20260905105541 20 226 0.0 0.0 0.00 0.00 0.00 95 1010.7
20260905105042 20 226 0.0 0.0 0.00 0.00 0.00 95 1010.6
20260905104544 20 226 0.0 0.0 0.00 0.00 0.00 94 1010.7
20260905104039 20 226 0.0 0.0 0.00 0.00 0.00 94 1010.7
20260905103542 20 226 0.0 0.0 0.00 0.00 0.00 94 1010.7
20260905103040 20 226 0.0 0.0 0.00 0.00 0.00 94 1010.7
20260905102538 20 226 0.0 0.0 0.00 0.00 0.00 94 1010.6
20260905102039 20 226 0.0 0.0 0.00 0.00 0.00 94 1010.6
20260905101538 20 226 0.0 0.0 0.00 0.00 0.00 94 1010.6
20260905101037 20 226 0.0 0.0 0.00 0.00 0.00 94 1010.4
20260905100539 20 226 0.0 0.0 0.00 0.00 0.00 94 1010.3
20260905100037 20 226 0.0 0.0 0.00 0.00 0.00 94 1010.2
20260905095537 20 226 0.0 0.0 0.00 0.00 0.00 94 1010.2
20260905095036 21 226 0.0 0.0 0.00 0.00 0.00 94 1010.2
20260905094536 21 226 0.0 0.0 0.00 0.00 0.00 94 1010.2
20260905094035 21 226 0.0 0.0 0.00 0.00 0.00 94 1010.3
20260905093537 21 226 0.0 0.0 0.00 0.00 0.00 94 1010.3
20260905093038 21 226 0.0 0.0 0.00 0.00 0.00 93 1010.3
20260905092538 21 226 0.0 0.0 0.00 0.00 0.00 93 1010.4
20260905092034 21 226 0.0 0.0 0.00 0.00 0.00 93 1010.3
20260905091537 21 226 0.0 0.0 0.00 0.00 0.00 93 1010.3
20260905091034 21 226 0.0 0.0 0.00 0.00 0.00 93 1010.3
20260905090533 21 226 0.0 0.0 0.00 0.00 0.00 93 1010.3
20260905090044 21 226 0.0 0.0 0.00 0.00 0.00 93 1010.3
20260905085533 21 226 0.0 0.0 0.00 0.00 0.00 93 1010.3
20260905085032 21 226 0.0 0.0 0.00 0.00 0.00 93 1010.3
20260905084531 21 226 0.0 0.0 0.00 0.00 0.00 92 1010.4
20260905084035 21 226 0.0 0.0 0.00 0.00 0.00 92 1010.4
20260905083530 21 226 0.0 0.0 0.00 0.00 0.00 92 1010.3
20260905083034 21 226 0.0 0.0 0.00 0.00 0.00 92 1010.2
20260905082529 21 226 0.0 0.0 0.00 0.00 0.00 92 1010.3
20260905082030 21 226 0.0 0.0 0.00 0.00 0.00 92 1010.4
20260905081526 21 226 0.0 0.0 0.00 0.00 0.00 92 1010.5
20260905081027 21 226 0.0 0.0 0.00 0.00 0.00 92 1010.5
20260905080526 21 226 0.0 0.0 0.00 0.00 0.00 92 1010.6
20260905080028 21 226 0.0 0.0 0.00 0.00 0.00 92 1010.6
20260905075526 21 226 0.0 0.0 0.00 0.00 0.00 92 1010.7
20260905075026 21 226 0.0 0.0 0.00 0.00 0.00 92 1010.7
20260905074525 21 226 0.0 0.0 0.00 0.00 0.00 92 1010.7
20260905074025 21 226 0.0 0.0 0.00 0.00 0.00 92 1010.7
20260905073524 21 226 0.0 0.0 0.00 0.00 0.00 92 1010.7
20260905073026 21 226 0.0 0.0 0.00 0.00 0.00 92 1010.7
20260905072525 21 226 0.0 0.0 0.00 0.00 0.00 92 1010.7
20260905072023 21 226 0.0 0.0 0.00 0.00 0.00 92 1011.0
20260905071526 21 226 0.0 0.0 0.00 0.00 0.00 91 1011.2
20260905071020 21 296 0.0 0.0 0.00 0.00 0.00 91 1011.5
20260905070519 21 298 0.0 0.0 0.00 0.00 0.00 91 1011.4
20260905070020 21 297 0.0 0.0 0.00 0.00 0.00 91 1011.5
20260905065518 22 297 0.0 0.0 0.00 0.00 0.00 91 1011.3
20260905065021 22 297 0.0 0.0 0.00 0.00 0.00 91 1011.4
20260905064518 22 297 0.0 0.0 0.00 0.00 0.00 90 1011.6
20260905064019 22 297 0.0 0.0 0.00 0.00 0.00 90 1011.5
20260905063520 22 297 0.0 0.0 0.00 0.00 0.00 90 1011.7
20260905063016 22 297 0.0 0.0 0.00 0.00 0.00 90 1011.9
20260905062514 22 297 0.0 0.0 0.00 0.00 0.00 90 1012.0
20260905062014 22 297 0.0 0.0 0.00 0.00 0.00 90 1011.9
20260905061516 22 297 0.0 0.0 0.00 0.00 0.00 90 1012.1
20260905061012 22 297 0.0 0.0 0.00 0.00 0.00 90 1012.2
20260905060511 22 297 0.0 0.0 0.00 0.00 0.00 89 1012.2
20260905060012 22 297 0.0 0.0 0.00 0.00 0.00 89 1012.4
20260905055511 22 301 0.0 0.0 0.00 0.00 0.00 89 1012.6
20260905055012 22 298 0.0 0.0 0.00 0.00 0.00 89 1012.7
20260905054505 22 297 0.0 0.0 0.00 0.00 0.00 89 1012.6
20260905054007 22 297 0.0 0.0 0.00 0.00 0.00 89 1012.6
20260905053504 22 297 0.0 0.0 0.00 0.00 0.00 89 1012.5
20260905053003 22 297 0.0 0.0 0.00 0.00 0.00 88 1012.6
20260905052603 22 296 0.0 0.0 0.00 0.00 0.00 88 1012.4
20260905052003 22 298 0.0 0.0 0.00 0.00 0.00 88 1012.6
20260905051606 22 298 0.0 0.0 0.00 0.00 0.00 88 1012.6
20260905051004 22 298 0.0 0.0 0.00 0.00 0.00 88 1012.7
20260905050603 22 298 0.0 0.0 0.00 0.00 0.00 88 1012.7
20260905050004 22 298 0.0 0.0 0.00 0.00 0.00 88 1012.7
20260905045604 22 298 0.0 0.0 0.00 0.00 0.00 88 1012.9
20260905045004 22 295 0.0 0.0 0.00 0.00 0.00 88 1013.0
20260905044604 22 295 0.0 0.0 0.00 0.00 0.00 88 1013.0
20260905044003 22 295 0.0 0.0 0.00 0.00 0.00 88 1013.0
20260905043603 22 295 0.0 0.0 0.00 0.00 0.00 88 1013.0
20260905043004 22 293 0.0 0.0 0.00 0.00 0.00 87 1013.0
20260905042604 22 293 0.0 0.0 0.00 0.00 0.00 87 1013.0
20260905042003 22 293 0.0 0.0 0.00 0.00 0.00 87 1012.9
20260905041603 22 293 0.0 0.0 0.00 0.00 0.00 87 1012.9
20260905041003 22 293 0.0 0.0 0.00 0.00 0.00 87 1012.9
20260905040604 22 293 0.0 0.0 0.00 0.00 0.00 87 1012.8
20260905040007 22 293 0.0 0.0 0.00 0.00 0.00 87 1012.9
20260905035602 22 293 0.0 0.0 0.00 0.00 0.00 87 1012.8
20260905035003 22 293 0.0 0.0 0.00 0.00 0.00 86 1012.8
20260905034604 22 293 0.0 0.0 0.00 0.00 0.00 86 1012.7
20260905034003 22 293 0.0 0.0 0.00 0.00 0.00 86 1012.6
20260905033603 22 293 0.0 0.0 0.00 0.00 0.00 86 1012.5
20260905033003 22 292 0.0 0.0 0.00 0.00 0.00 86 1012.4
20260905032604 22 292 0.0 0.0 0.00 0.00 0.00 85 1012.4
20260905032003 23 292 0.0 0.0 0.00 0.00 0.00 85 1012.2
20260905031617 23 292 0.0 0.0 0.00 0.00 0.00 85 1012.3
20260905031003 23 292 0.0 0.0 0.00 0.00 0.00 85 1012.2
20260905030603 23 292 0.0 0.0 0.00 0.00 0.00 84 1012.3
20260905030004 23 292 0.0 0.0 0.00 0.00 0.00 84 1012.3
20260905025602 23 292 0.0 0.0 0.00 0.00 0.00 84 1012.2
20260905025004 23 292 0.0 0.0 0.00 0.00 0.00 83 1012.2
20260905024604 23 292 0.0 0.0 0.00 0.00 0.00 83 1012.3
20260905024003 23 292 0.0 0.0 0.00 0.00 0.00 83 1012.5
20260905023604 23 292 0.0 0.0 0.00 0.00 0.00 83 1012.5
20260905023003 23 292 0.0 0.0 0.00 0.00 0.00 82 1012.4
20260905022603 23 292 0.0 0.0 0.00 0.00 0.00 82 1012.4
20260905022006 23 292 0.0 0.0 0.00 0.00 0.00 82 1012.3
20260905021604 23 292 0.0 0.0 0.00 0.00 0.00 81 1012.4
20260905021104 23 292 0.0 0.0 0.00 0.00 0.00 81 1012.3
20260905020503 24 292 0.0 0.0 0.00 0.00 0.00 80 1012.2
20260905020012 24 292 0.0 0.0 0.00 0.00 0.00 80 1012.2
20260905015603 24 292 0.0 0.0 0.00 0.00 0.00 79 1012.1
20260905015103 24 292 0.0 0.0 0.00 0.00 0.00 79 1012.1
20260905014604 24 292 0.0 0.0 0.00 0.00 0.00 78 1012.1
20260905014103 25 292 0.0 0.0 0.00 0.00 0.00 77 1011.8
20260905013503 25 292 0.0 0.0 0.00 0.00 0.00 77 1011.8
20260905013006 25 292 0.0 0.0 0.00 0.00 0.00 76 1011.8
20260905012510 25 292 0.0 0.0 0.00 0.00 0.00 75 1011.8
20260905012105 25 292 0.0 0.0 0.00 0.00 0.00 74 1011.8
20260905011510 25 292 0.0 0.0 0.00 0.00 0.00 74 1011.9
20260905011011 25 292 0.0 0.0 0.00 0.00 0.00 73 1011.8
20260905010605 25 292 0.0 0.0 0.00 0.00 0.00 73 1011.8
20260905010005 26 292 0.0 0.0 0.00 0.00 0.00 72 1011.8
20260905005509 26 292 0.0 0.0 0.00 0.00 0.00 70 1011.7
20260905005104 26 292 0.0 0.0 0.00 0.00 0.00 70 1011.9
20260905004502 26 292 0.0 0.0 0.00 0.00 0.00 69 1011.9
20260905004012 26 292 0.0 0.0 0.00 0.00 0.00 69 1012.0
20260905003603 26 292 0.0 0.0 0.00 0.00 0.00 68 1012.0
20260905003004 27 295 0.0 0.0 0.00 0.00 0.00 67 1012.0
20260905002509 27 295 0.0 0.0 0.00 0.00 0.00 66 1012.2
20260905002103 27 295 0.0 0.0 0.00 0.00 0.00 65 1012.3
20260905001509 27 295 0.0 0.0 0.00 0.00 0.00 64 1012.3
20260905001009 27 295 0.0 0.0 0.00 0.00 0.00 63 1012.6
20260905000603 28 295 0.0 0.0 0.00 0.00 0.00 62 1012.7
20260905000009 28 294 0.0 0.0 0.00 0.00 0.00 61 1012.8
20260904235604 28 45 0.0 0.0 0.00 0.00 0.00 61 1012.9
20260904235003 28 39 0.0 0.0 0.00 0.00 0.00 60 1012.9
20260904234510 28 34 0.0 0.0 0.00 0.00 0.00 60 1012.8
20260904234103 28 145 0.0 0.0 0.00 0.00 0.00 59 1012.8
20260904233503 29 145 0.0 1.6 0.00 0.00 0.00 59 1012.6
20260904233009 29 151 0.0 1.6 0.00 0.00 0.00 59 1012.4
20260904232603 30 152 0.0 0.0 0.00 0.00 0.00 59 1012.3
20260904232003 30 153 0.0 0.0 0.00 0.00 0.00 59 1012.0
20260904231513 30 113 0.0 8.0 0.00 0.00 0.00 61 1012.0
20260904231103 30 28 0.0 8.0 0.00 0.00 0.00 59 1012.0
20260904230504 31 29 0.0 8.0 0.00 0.00 0.00 61 1011.9
20260904230023 31 68 0.0 8.0 0.00 0.00 0.00 63 1012.0
20260904225603 31 65 0.0 1.6 0.00 0.00 0.00 71 1012.0
20260904225002 31 193 0.0 0.0 0.00 0.00 0.00 70 1011.9